This demonstration page uses our WeatherBlox Daily Observations layout. Learn more.

Left ArrowRight Arrow

Hourly Observations for August 1, 2017

Temp ( °F °C ) Dew Point ( °F °C ) Humidity (%) Winds ( mph kmh ) Pressure ( in mb ) Visibility ( mi km ) Precip ( " mm )
12:53 am 00:53 Clear 66 18.9 63 17.2 90 90 SW 6 9 30.13 1020 10 16 0.00 0.00
1:53 am 01:53 Clear 65 18.3 62 16.7 90 90 WSW 3 6 30.13 1020 10 16 0.00 0.00
2:53 am 02:53 Clear 64 17.8 62 16.7 93 93 SSW 3 6 30.13 1020 10 16 0.00 0.00
3:53 am 03:53 Clear 63 17.2 61 16.1 93 93 Calm 30.13 1020 8 13 0.00 0.00
4:53 am 04:53 Clear 63 17.2 61 16.1 93 93 SW 3 6 30.11 1020 7 11 0.00 0.00
5:53 am 05:53 Clear with Mist and Fog 62 16.7 60 15.6 93 93 WSW 3 6 30.11 1020 5 8 0.00 0.00
6:25 am 06:25 Mostly Clear with Mist and Fog 60 15.6 58 14.4 93 93 Calm 30.09 1019 4 6 0.00 0.00
6:37 am 06:37 Mostly Cloudy with Mist and Fog 60 15.6 58 14.4 93 93 Calm 30.09 1019 2 3 0.00 0.00
6:39 am 06:39 Mostly Cloudy with Mist and Fog 60 15.6 58 14.4 93 93 Calm 30.09 1019 1 1 0.00 0.00
6:53 am 06:53 Mostly Cloudy with Fog 60 15.6 59 15 96 96 Calm 30.13 1020 0 0 0.00 0.00
7:11 am 07:11 Partly Cloudy with Mist and Fog 61 16.1 60 15.6 97 97 Calm 30.09 1019 2 2 0.00 0.00
7:13 am 07:13 Partly Cloudy with Mist and Fog 61 16 61 16 100 100 Calm 30.09 1019 3 5 0.00 0.00
7:53 am 07:53 Sunny with Mist and Fog 64 17.8 62 16.7 93 93 SSW 3 6 30.13 1020 6 10 0.00 0.00
8:53 am 08:53 Sunny 69 20.6 64 17.8 84 84 Calm 30.13 1020 9 14 0.00 0.00
9:53 am 09:53 Sunny 73 22.8 64 17.8 74 74 W 3 6 30.14 1021 10 16 0.00 0.00
10:53 am 10:53 Mostly Cloudy 75 23.9 59 15 58 58 SW 5 7 30.14 1021 10 16 0.00 0.00
11:53 am 11:53 Sunny 77 25 61 16.1 58 58 SE 3 6 30.14 1021 10 16 0.00 0.00
12:53 pm 12:53 Sunny 78 25.6 62 16.7 58 58 SSW 5 7 30.13 1020 10 16 0.00 0.00
1:53 pm 13:53 Sunny 80 26.7 63 17.2 56 56 VRB 3 6 30.12 1020 10 16 0.00 0.00
2:53 pm 14:53 Mostly Sunny 80 26.7 62 16.7 54 54 Calm 30.11 1020 10 16 0.00 0.00
3:53 pm 15:53 Mostly Sunny 82 27.8 64 17.8 55 55 VRB 3 6 30.10 1019 10 16 0.00 0.00
4:53 pm 16:53 Mostly Sunny 82 27.8 63 17.2 53 53 Calm 30.10 1019 10 16 0.00 0.00
5:53 pm 17:53 Sunny 83 28.3 60 15.6 46 46 N 3 6 30.08 1019 10 16 0.00 0.00
6:53 pm 18:53 Sunny 82 27.8 62 16.7 51 51 NE 7 11 30.10 1019 10 16 0.00 0.00
7:53 pm 19:53 Sunny 77 25 65 18.3 66 66 NE 5 7 30.11 1020 10 16 0.00 0.00
8:53 pm 20:53 Clear 76 24.4 64 17.8 67 67 E 8 13 30.07 1018 10 16 0.00 0.00
9:53 pm 21:53 Clear 70 21.1 64 17.8 82 82 N 6 9 30.11 1020 10 16 0.00 0.00
10:53 pm 22:53 Clear 67 19.4 63 17.2 87 87 W 5 7 30.14 1021 10 16 0.00 0.00
11:53 pm 23:53 Clear 67 19.4 63 17.2 87 87 NW 6 9 30.14 1021 10 16 0.00 0.00

Powered by AerisWeather